www.pogodaiklimat.ru

Погода и климат >> Архив погоды >> Россия >> Коми >> Елецкая


ПОГОДА в Елецкой

  • Прогноз погоды в Елецкой
  • Монитор погоды в Елецкой

АРХИВ ПОГОДЫ в Елецкой

Время (UTC), дата Ветер
(напр.,м/с)
 
Видим.   Явления Облачность Т
(С)
Тd
(С)
f
(%)
Тe
(С)
Тes
(С)
Комфортность P
(гПа)
Po
(гПа)
Тmin
(С)
Tmax
(С)
R
(мм)
R24
(мм)
S
(см)
03 15.08 ЮЗ 3 10 км 10/10 420 м
[Cb cap]
+12.2 +12.0 99 +10 +10 1012.1 998.6 +10.7 2
06 15.08 ЮЗ 3 20 км 10/10 500 м
[Cb cap]
+12.8 +11.2 90 +11 +11 1012.2 998.7
09 15.08 Ю 3 20 км 9/9 570 м
[Cb cap]
+15.1 +11.3 78 +14 +15 1012.3 998.9
12 15.08 З 2 50 км 10/5 600 м
[Sc Ac trans]
+15.8 +12.1 79 +16 +16 1012.3 998.9
15 15.08 ЮЗ 1 50 км 8/4 600 м
[Sc Ac trans]
+14.6 +11.3 81 +15 +15 1012.6 999.1 +16.8
18 15.08 В 2 50 км 8/3 600 м
[Sc Ac trans]
+12.6 +10.8 89 +12 +12 1012.9 999.4
21 15.08 В 2 н/о н/о +10.9 +9.6 92 +9 +9 1012.4 998.8
00 16.08 В 2 н/о н/о +10.8 +9.7 93 +9 +9 1012.2 998.6
03 16.08 В 4 50 км 10/8 700 м
[Cb cap Ac trans]
+14.6 +11.7 83 +13 +13 1009.7 996.3 +9.7 0.3
06 16.08 ЮВ 8-12
{12}
20 км 10/8 630 м
[Cb cap Ac trans]
+14.7 +12.2 85 +12 +13 1007.3 994.0
09 16.08 ЮВ 7-11
{13}
4000 м слаб. ливневой дождь 10/8 570 м
[Cb cap Ac As]
+14.5 +12.4 87 +12 +12 1005.3 992.0
12 16.08 Ю 7-10
{11}
50 км {ливн. осадки} 9/8 570 м
[Cb cap Ac trans]
+18.1 +14.1 77 +17 +18 1004.0 990.9
15 16.08 Ю 3
{11}
50 км 9/6 600 м
[Cb cap Ac lent Ci fib]
+16.3 +13.2 82 +16 +16 1004.8 991.6 +18.2 0.6
18 16.08 ЮЗ 4 50 км {ливн. осадки} 9/5 600 м
[Sc Ac trans]
+13.1 +9.8 80 +11 +11 1005.7 992.2
21 16.08 Ю 4 н/о н/о +12.5 +9.1 80 +11 +11 1004.6 991.2
00 17.08 Ю 6
{11}
н/о н/о +12.0 +10.8 92 +9 +9 1004.6 991.1
03 17.08 ЮЗ 6-11
{12}
20 км 10/10 450 м
[Cb cap]
+12.2 +11.2 94 +9 +9 1004.9 991.5 +11.3 1
06 17.08 З 5
{13}
4000 м слаб. ливневой дождь 10/10 400 м
[Cb cap]
+10.2 +9.3 94 +7 +7 1008.3 994.7 +10.0
09 17.08 З 4
{13}
20 км {ливн. осадки} 10/10 570 м
[Cb cap]
+10.4 +8.8 90 +8 +8 1011.2 997.6
12 17.08 З 3 4000 м слаб. ливневой дождь 10/10 400 м
[Cb cap]
+9.9 +9.1 95 +8 +8 1014.1 1000.4
15 17.08 З 3 20 км {ливн. осадки} 9/9 660 м
[Cb cap]
+9.6 +8.0 90 +7 +7 1016.3 1002.6 +12.3 2
18 17.08 З 2 20 км {ливн. осадки} 8/8 720 м
[Sc]
+6.1 +5.1 93 +4 +4 1017.6 1003.6
21 17.08 З 2 н/о н/о +5.8 +5.0 95 +3 +3 1019.3 1005.4
00 18.08 З 1 н/о н/о +4.9 +4.1 95 +3 +3 1021.3 1007.2
03 18.08 З 1 20 км 10/10 300 м
[St]
+5.7 +4.3 91 +4 +4 1022.4 1008.4 +4.6
06 18.08 З 1 50 км 9/8 660 м
[Sc Ac trans Ci]
+8.5 +5.5 81 +8 +9 1023.5 1009.6
09 18.08 З 2 50 км 8/3 600 м
[Sc Ac lent Ci]
+13.6 +8.2 70 +13 +16 1023.2 1009.6
12 18.08 СЗ 1 50 км 10/10 630 м
[Cb cap]
+13.0 +9.3 78 +13 +13 1024.6 1010.9
15 18.08 штиль 0 50 км 9/8 800 м
[Sc Ac trans]
+12.8 +9.8 82 +12 +12 1025.3 1011.6 +14.4
18 18.08 ЮВ 1 50 км 5/0
[Ac trans Ci fib]
+7.0 +6.5 97 +6 +6 1026.6 1012.6
21 18.08 СВ 2 н/о н/о +5.3 +5.2 99 +2 +2 1027.6 1013.5
00 19.08 В 1 н/о н/о +3.7 +3.7 100 +2 +2 1028.9 1014.7
03 19.08 С 1 20 км 10/6 700 м
[Sc Ac trans]
+8.6 +8.5 99 +8 +8 1029.5 1015.5 +3.6
06 19.08 СЗ 2 50 км 9/6 800 м
[Sc Ac trans]
+13.0 +8.8 76 +12 +14 1029.5 1015.8
09 19.08 С 1 50 км 9/3 600 м
[Cu hum Ac trans Ci fib]
+16.1 +10.1 68 +17 +20 1028.8 1015.2
12 19.08 С 2 50 км 8/0
[Ac lent Ci fib]
+17.6 +10.9 65 +18 +20 1028.1 1014.6
15 19.08 СВ 2 50 км 4/0
[Ac lent Ci fib]
+15.1 +11.7 80 +15 +15 1027.9 1014.3 +17.9
18 19.08 СВ 2 50 км 1/0
[Ci fib]
+8.6 +7.6 93 +7 +7 1028.4 1014.5
21 19.08 В 2 н/о н/о +5.7 +5.4 98 +3 +3 1028.1 1014.0
00 20.08 СВ 3 н/о н/о +5.1 +5.0 99 +1 +1 1028.2 1014.1
03 20.08 В 1 50 км 3/0
[Ci fib]
+13.2 +11.1 87 +13 +16 1027.3 1013.6 +3.7
06 20.08 В 3 50 км 3/0
[Ci fib]
+19.9 +12.6 63 +22 +27 комфорт 1026.3 1012.9
09 20.08 ЮВ 3 50 км 6/6 700 м
[Cu hum]
+21.2 +12.3 57 +23 +26 комфорт 1025.2 1011.9
12 20.08 ЮВ 3 50 км 4/4 600 м
[Cu Sc]
+20.7 +12.2 58 +23 +25 комфорт 1024.9 1011.6
15 20.08 ЮВ 3 50 км 3/3 600 м
[Cu Sc]
+16.6 +12.3 76 +16 +16 1024.5 1011.0 +21.6
18 20.08 ЮВ 4 50 км 3/3 600 м
[Sc]
+13.1 +10.9 86 +11 +11 1025.1 1011.5
21 20.08 В 2 н/о н/о +9.7 +8.3 91 +8 +8 1025.3 1011.5
00 21.08 В 2 н/о н/о +7.3 +6.4 94 +5 +5 1025.0 1011.0
03 21.08 В 4 50 км 9/1 600 м
[Sc Ac lent Ci fib]
+13.8 +11.0 83 +12 +13 1023.9 1010.3 +7.0
06 21.08 В 3 50 км 8/1 600 м
[Cu hum Ac lent Ci fib]
+18.7 +10.8 60 +19 +22 1022.7 1009.4
09 21.08 Ю 3 50 км 8/3 600 м
[Cu hum Ac trans Ci fib]
+20.2 +10.8 55 +22 +25 комфорт 1021.2 1007.9
12 21.08 ЮЗ 2 50 км 9/1 600 м
[Cu hum Ac trans Ci fib]
+19.2 +11.4 61 +21 +22 комфорт 1020.0 1006.7
15 21.08 ЮВ 2 50 км 9/0
[Ac trans Ci fib]
+15.3 +11.7 79 +15 +15 1018.8 1005.4 +20.8
18 21.08 В 2 50 км 9/0
[Ac trans Ci fib]
+9.9 +8.4 90 +8 +8 1017.9 1004.2
21 21.08 В 4 н/о н/о +10.0 +8.5 90 +7 +7 1016.1 1002.4
00 22.08 В 3 н/о н/о +8.5 +7.2 92 +6 +6 1014.7 1000.9

 

Местоположение метеостанции Елецкая (Коми, Россия): широта 67.05 долгота 64.07 высота над уровнем моря 115 м.

В архиве по умолчанию представлена погода в Елецкой за последнюю неделю. Архивные данные за месяц целиком и за предыдущие месяцы, начиная с января 2011 года, Вы можете получить, выбрав интересующий диапазон дат из раскрывающегося списка и нажав кнопку "Ввод!".


*Определитесь, кто Вы:
робот инопланетянин человек

Внимание! Время в таблицах - всемирное. Для получения местного времени необходимо прибавить поправку, которая равна 3 ч.

Смотрите также архив погоды в соседних городах и на ближайших метеорологических станциях:

Погода в Воркуте (Коми, Россия) (48 км)
Погода в Харпе (Ямало-Ненецкий АО, Россия) (80 км)
Погода в Салехарде (Ямало-Ненецкий АО, Россия) (128 км)
Погода в Питляре (Ямало-Ненецкий АО, Россия) (159 км)
Погода в Петруни (Коми, Россия) (160 км)
Погода в Белоярске (Ямало-Ненецкий АО, Россия) (178 км)
Погода в Мужах (Ямало-Ненецкий АО, Россия) (188 км)
Погода в Харуте (Ненецкий АО, Россия) (199 км)
Погода в Полуе (Ямало-Ненецкий АО, Россия) (233 км)
Погода в Усть-Каре (Ненецкий АО, Россия) (247 км)

Пояснения к столбцам:

Ветер - указаны скорость ветра в м/с - средняя за 10 мин, порывы в срок и между сроками (в фигурных скобках) и направление, откуда дует ветер: С - северный, СВ - северо-восточный, В - восточный, ЮВ - юго-восточный, Ю - южный, ЮЗ - юго-западный, З - западный, СЗ - северо-западный.
Видимость - горизонтальная дальность видимости в метрах или километрах. При видимости от 1 до 10 км при отсутствии осадков обычно наблюдается дымка, при ухудшении видимости до 1 км и менее - туман. В сухую погоду видимость может ухудшаться дымом, пылью или мглою.
Явления - указаны атмосферные явления, наблюдавшиеся в срок или в последний час перед сроком; фигурными скобками обозначены явления, наблюдавшиеся между сроками (за 1-3 часа до срока); квадратными скобками обозначены град или гололедные отложения с указанием их диаметра в мм.
Облачность - указаны через наклонную черту общая и нижняя облачность в баллах и высота нижней границы облаков в метрах; квадратными скобками обозначены формы облаков: Ci - перистые, Cs - перисто-слоистые, Cc - перисто-кучевые, Ac - высококучевые, As - высокослоистые, Sc - слоисто-кучевые, Ns - слоисто-дождевые, Cu - кучевые, Cb - кучево-дождевые. Подробнее классификацию облаков см. в Атласе облаков (PDF).
T - Температура воздуха - температура, измеренная на высоте 2 м над землей.
Td - Температура точки росы - температура, при понижении до которой содержащийся в воздухе водяной пар достигнет насыщения.
f - Относительная влажность воздуха - влажноcть воздуха, измеренная на высоте 2 м над землей.
Te - Эффективная температура - температура, которую ощущает одетый по сезону человек в тени. Характеристика душности погоды. При расчете учитывается влияние влажности воздуха и скорости ветра на теплоощущения человека.
Tes - Эффективная температура на солнце - температура, которую ощущает человек, с поправкой на солнечный нагрев. Характеристика знойности погоды. Зависит от высоты солнца над горизонтом, облачности и скорости ветра. Ночью, в пасмурную погоду, а также при ветре 12 м/с и более поправка равна нулю.
P - Атмосферное давление - приведенное к уровню моря атмосферное давление.
Po - Атмосферное давление - измеренное на уровне метеостанции атмосферное давление.
Tmin - Минимальная температура - минимум температуры воздуха на высоте 2 м над землей.
Tmax - Максимальная температура - максимум температуры воздуха на высоте 2 м над землей.
R - Количество осадков - Количество выпавших осадков за период времени, мм. При наведении курсора мыши на число - период времени, за который выпало указанное количество осадков.
R24 - Количество осадков - Количество выпавших осадков за 24 часа, мм.
S - Снежный покров - Высота снежного покрова, см. При наведении курсора мыши на число - состояние снежного покрова и степень покрытия местности в баллах.